User: anonymous   Login
Location: Braunsdorf
(50.7357°N, 11.9136°E)
Time: 17:55:49
(UTC+00:00)
Language:

SL-16 R/B - Orbit

View from above orbital plane
View from above orbital plane
View from above satellite
View from above satellite

Ground track
Ground track

The orbit data is extracted from the following two-line orbital elements,

1 28353U 04021B   20151.66573864 -.00000215 +00000-0 -87751-4 0  9994
2 28353 070.9999 336.6329 0005636 336.6887 023.3979 14.14234751824626
Epoch (UTC): 30 May 2020 15:58:39
Eccentricity: 0.0005636
inclination: 70.9999°
perigee height: 841 km
apogee height: 849 km
right ascension of ascending node: 336.6329°
argument of perigee: 336.6887°
revolutions per day: 14.14234751
mean anomaly at epoch: 23.3979°
orbit number at epoch: 82462

The dashed part of the orbit path shows where the satellite is in the earth's shadow,  

DLR